YUKONSAT

导读

YUKONSAT(育空卫星)是加拿大研发的科学教育类卫星,于1998年11月20日发射升空。该卫星由育空学院主导开发,搭载传感器阵列、机械臂相机、磁强计等设备,承担着电离层磁场数据采集、天体观测等科研任务,同时面向公众开展航天科普与学生实践活动,助力航天知识普及和青少年航天人才培养,是加拿大民用航天科普领域的标志性小卫星项目。

Basic Information
目录编号:
56316
目录名称:
YUKONSAT
国际标识:
1998-067VH
轨道中心:
EARTH
卫星名称:
YUKONSAT
卫星全名:
--
卫星状态:
已陨落 最后检测时间 2023-11-11
发射日期:
1998-11-20 UTC
国别 :
加拿大 (CA)
星等 :
--
Orbit Information
数据来源 国际轨道数据
星历时间: 2023-11-10T16:54:45+0800
轨道信息已过期976天
半长轴: 6565.088km
偏心率: 0.0000536
轨道倾角: 51.613°
近地点辐角 128.110°
升交点赤经 301.150°
平近点角 231.997°
近地点: 186.601km
远地点: 187.305km
周期: 88.231分钟
每日圈数: 16.32082
Detailed Information
使用方式:
暂无